This demonstration page uses our WeatherBlox Daily Observations layout. Learn more.

41.55636, -103.73856

Hourly Observations for March 3, 2019

Temp ( °F °C ) Dew Point ( °F °C ) Humidity (%) Winds ( mph kmh ) Pressure ( in mb ) Visibility ( mi km ) Precip ( " mm )
12:46 am 00:46 Cloudy with Light Snow 0 -18 -6 -21 78 78 ENE 6 9 30.77 1042 2.5 4.02336 0 0
12:53 am 00:53 Cloudy with Light Snow -1 -18.3 -5 -20.6 82 82 ENE 6 9 30.56 1035 2 3.218688 0.001 0.001
1:03 am 01:03 Cloudy with Light Snow -1 -18.3 -5 -20.6 82 82 ENE 5 7 30.77 1042 2 3.218688 0.01 0.254
1:11 am 01:11 Cloudy with Light Snow -1 -18.3 -5 -20.6 82 82 E 6 9 30.77 1042 1.75 2.816352 0.01 0.254
1:22 am 01:22 Cloudy with Light Snow 0 -18 -6 -21 78 78 ENE 5 7 30.77 1042 2.5 4.02336 0 0
1:38 am 01:38 Cloudy with Light Snow 0 -18 -6 -21 78 78 ENE 5 7 30.77 1042 1.25 2.01168 0 0
1:53 am 01:53 Mostly Cloudy with Scattered Snow Showers -1 -18.3 -5 -20.6 82 82 E 3 6 30.56 1035 1 1.609344 0.02 0.508
2:14 am 02:14 Cloudy with Light Snow 0 -18 -6 -21 78 78 NNE 3 6 30.77 1042 2 3.218688 0 0
2:23 am 02:23 Cloudy with Light Snow -1 -18.3 -6 -21.1 79 79 NNE 5 7 30.77 1042 5 8.04672 0.001 0.001
2:53 am 02:53 Cloudy with Light Snow -2 -18.9 -6 -21.1 83 83 NNE 6 9 30.56 1035 3 4.828032 0.001 0.001
3:53 am 03:53 Cloudy -3 -19.4 -8 -22.2 79 79 NNE 5 7 30.56 1035 10 16.09344 0.001 0.001
4:53 am 04:53 Cloudy with Haze -3 -19.4 -8 -22.2 79 79 NE 5 7 30.59 1036 5 8.04672 0.001 0.001
5:53 am 05:53 Cloudy with Light Snow -4 -20 -8 -22.2 83 83 N 3 6 30.59 1036 2.5 4.02336 0.001 0.001
6:00 am 06:00 Cloudy with Light Snow -4 -20 -8 -22 84 84 N 3 6 30.8 1043 3 4.828032 0 0
6:53 am 06:53 Cloudy -6 -21.1 -9 -22.8 86 86 Calm 30.62 1037 10 16.09344 0.001 0.001
7:53 am 07:53 Sunny -6 -21.1 -10 -23.3 83 83 W 6 9 30.62 1037 10 16.09344 0 0
8:53 am 08:53 Partly Cloudy -3 -19.4 -10 -23.3 71 71 WNW 9 15 30.62 1037 10 16.09344 0 0
9:53 am 09:53 Sunny 0 -17.8 -8 -22.2 69 69 WNW 8 13 30.59 1036 10 16.09344 0 0
10:53 am 10:53 Sunny 2 -16.7 -6 -21.1 69 69 W 7 11 30.59 1036 10 16.09344 0 0
11:53 am 11:53 Sunny 5 -15 -5 -20.6 63 63 WNW 13 20 30.56 1035 10 16.09344 0 0
12:53 pm 12:53 Mostly Sunny 8 -13.3 -4 -20 57 57 NNW 7 11 30.53 1034 10 16.09344 0 0
1:24 pm 13:24 Mostly Cloudy 8 -13.3 -2 -18.9 63 63 WNW 10 17 30.62 1037 10 16.09344 0.001 0.001
1:53 pm 13:53 Cloudy 9 -12.8 -2 -18.9 61 61 WNW 14 22 30.5 1033 10 16.09344 0.001 0.001
2:43 pm 14:43 Cloudy 7 -13.9 -2 -18.9 66 66 W 9 15 30.62 1037 10 16.09344 0 0
2:53 pm 14:53 Cloudy 6 -14.4 -2 -18.9 69 69 W 10 17 30.5 1033 10 16.09344 0 0
3:45 pm 15:45 Mostly Cloudy 6 -14.4 -2 -18.9 69 69 W 10 17 30.62 1037 10 16.09344 0 0
3:53 pm 15:53 Mostly Cloudy 6 -14.4 -3 -19.4 66 66 W 9 15 30.5 1033 10 16.09344 0 0
4:53 pm 16:53 Mostly Sunny 5 -15 -4 -20 66 66 W 8 13 30.5 1033 10 16.09344 0 0
5:53 pm 17:53 Clear 3 -16.1 -5 -20.6 69 69 W 8 13 30.53 1034 10 16.09344 0 0
6:53 pm 18:53 Clear -2 -18.9 -7 -21.7 79 79 WNW 6 9 30.56 1035 10 16.09344 0 0
7:53 pm 19:53 Clear -2 -18.9 -6 -21.1 83 83 NW 3 6 30.56 1035 10 16.09344 0 0
8:53 pm 20:53 Clear -6 -21.1 -9 -22.8 86 86 WNW 6 9 30.56 1035 10 16.09344 0 0
9:53 pm 21:53 Clear -5 -20.6 -9 -22.8 83 83 WNW 8 13 30.56 1035 10 16.09344 0 0
10:53 pm 22:53 Clear -9 -22.8 -13 -25 82 82 WNW 8 13 30.56 1035 10 16.09344 0 0
11:53 pm 23:53 Clear -8 -22.2 -13 -25 78 78 W 7 11 30.56 1035 10 16.09344 0 0

Powered by AerisWeather